Location: Arclight Observatory
(36.5667°N, 87.3333°W)
Time: 11:12:58
(UTC-05:00)

Hubble Space Telescope - Visible Passes

Search period start: 01 August 2015 00:00
Search period end: 11 August 2015 00:00
Orbit: 541 x 545 km, 28.5° (Epoch: 31 July)

Date Brightness Start Highest point End Pass type
(mag) Time Alt. Az. Time Alt. Az. Time Alt. Az.
02 Aug 3.0 21:33:50 10° SSW 21:34:32 13° SSW 21:34:32 13° SSW visible
03 Aug 2.5 21:24:34 10° SSW 21:26:39 18° S 21:26:39 18° S visible
04 Aug 2.2 21:15:24 10° SW 21:18:35 22° S 21:18:35 22° S visible
05 Aug 2.0 21:06:17 10° SW 21:09:37 24° S 21:10:23 22° SSE visible
06 Aug 2.0 20:57:14 10° SW 21:00:40 25° S 21:02:04 21° SE visible
07 Aug 2.0 20:48:14 10° SW 20:51:43 26° S 20:53:40 18° SE visible
08 Aug 2.0 20:39:15 10° WSW 20:42:45 26° S 20:45:12 16° SE visible
08 Aug 3.5 22:20:32 10° WSW 22:20:38 10° WSW 22:20:38 10° WSW visible
09 Aug 2.1 20:30:19 10° WSW 20:33:48 26° S 20:36:42 13° SE visible
09 Aug 3.4 22:11:51 10° WSW 22:12:08 11° SW 22:12:08 11° SW visible
10 Aug 2.2 20:21:25 10° WSW 20:24:51 25° S 20:28:11 10° SE visible
10 Aug 3.4 22:03:17 10° SW 22:03:36 11° SW 22:03:36 11° SW visible
